STARLINK-1677, 46576

Orbit data source: Space-Track

STARLINK-1677, 46576 is a payload satellite owned by SpaceX/Seattle (US) in LEO that was launched on Tue, 06 Oct 2020 UTC via an FALCON 9 launch vehicle from the Air Force Eastern Test Range (AFETR). Payload-class satellites include a variety of spacecraft equipped with specific instruments for various scientific and technological missions. These include communications satellites like Starlink; space stations such as the ISS; scientific satellites like the Hubble; Earth observation satellites from companies like Planet Labs, Umbra, and HawkEye 360; GPS; miniature CubeSats for education and research; and military/defense satellites.

Loading next visibility...
Identifier
46576, 2020-070AW
Orbit
LEO
Country
Flag of USUS
Related business
Manufacturer
SpaceX/Seattle
Mission
Partially operational Commercial Communications
Bus & Motor
STARLINK, Unknown motor
Mass
260 kg wet, ~248 kg dry
Launch date (UTC)
2020-10-06 (6 years ago)
Launch vehicle
FALCON 9
Launch site
Air Force Eastern Test Range (AFETR)
Object type
Payload
Rocket body
Debris
Shape & HBR
Box + 1 Pan, 10.1 m
Radar Cross Section
13.562 m², Large (>1 m²)

Expand to show TLE details & history
Last TLE update: 7 hours ago

TLE from 7 hours ago
0 STARLINK-1677
1 46576U 20070AW  26123.00002315  .00143115  00000-0  74000-3 0  9991
2 46576  53.0305 214.7067 0009064 343.5914 245.8356 15.80117743  5882
Epoch: 2026-05-03T00:00Z
TLE epoch observation values (Epoch: 2026-05-03T00:00:02.000Z)
Latitude
-37.51245°
Longitude
-151.14032°
Altitude
344.727 km
Speed
7.7 km/s
True Right ascension
04h 39m 06s
True Declination
-37° 20' 11"
Sunlit
Object was in daylight at epoch
Visualization orbit readout
Latitude
Unknown
Longitude
Unknown
Altitude
Unknown
Speed
Unknown
Apparent Right ascension
Unknown
Apparent Declination
Unknown
Sunlit
N/A
Visualization observer readout
Local Sidereal Time
14:43:54
Azimuth
Unknown
Elevation
Unknown
Doppler factor
Unknown
Orbital elements
Apogee altitude
336.471 km
Perigee altitude
324.31 km
Semi-major axis
6,708.528 km
Eccentricity
0.00091
Inclination
53.0305°
RAAN
214.7067°
Arg. of periapsis
343.5914°
True anomaly
245.74088°
Mean anomaly
245.8356°
Eccentric anomaly
245.78824°
Mean motion
3.95005 °/min
Orbital period
91.14 mins
BSTAR
0.00074
Loading maneuver chart data...
Computing Atmospheric mass density...
Loading historical data...
Loading historical data...
Loading historical data...
Loading historical data...
Loading historical data...
Loading historical data...
Loading historical data...

Documentation

Showing up to 5 results
|